Find Starlink 5882

NORAD ID: 55936 Int'l Des: 2023-037 Owner: SPXS Country: US Constellation: starlink operational
LEOCIRCULAR

实时位置

正在加载3D地球...

关于 Starlink 5882

正在加载描述...

即将过境

Passes for default location (London). Set your location on the main map for personalized predictions.

高度历史

Loading altitude history...

两行轨道根数

1 55936U 23037Y 26123.40879068 .00000240 00000-0 27881-4 0 9995
2 55936 69.9989 126.3278 0003521 269.4150 90.6606 14.98329930172675
Epoch: May 3, 2026 • Age: 21 hours

当前状态

高度 574.6 km
速度 7.57 km/s
星下点 15.54°N, 167.04°E
发射日期 Mar 17, 2023
运行时间 3.1 years
类型 internet

技术详情

分类 Payload
质量 305.00 kg
干质量 290.00 kg
总质量 305.00 kg
长度 0.20 m
直径 2.80 m
跨度 9.00 m
形状 Box + pan
制造商 SPXS
平台类型 Starlink
阶段状态 In Orbit
所有者/国家 SPXS/US

Most Searched